STARLINK-11574, 63010

Orbit data source: Space-Track

STARLINK-11574, 63010 is a payload satellite owned by SpaceX/Seattle (US) in LEO that was launched on Sat, 15 Feb 2025 UTC via an FALCON 9 launch vehicle from the Air Force Eastern Test Range (AFETR). Payload-class satellites include a variety of spacecraft equipped with specific instruments for various scientific and technological missions. These include communications satellites like Starlink; space stations such as the ISS; scientific satellites like the Hubble; Earth observation satellites from companies like Planet Labs, Umbra, and HawkEye 360; GPS; miniature CubeSats for education and research; and military/defense satellites.

Loading next visibility...
Identifier
63010, 2025-032F
Orbit
LEO
Country
Flag of USUS
Related business
Manufacturer
SpaceX/Seattle
Mission
Operational Commercial Communications
Bus & Motor
STARLINK V2MD, Unknown motor
Mass
960 kg wet, ~910 kg dry
Launch date (UTC)
2025-02-15 (8 months ago)
Launch vehicle
FALCON 9
Launch site
Air Force Eastern Test Range (AFETR)
Object type
Payload
Rocket body
Debris
Shape & HBR
Box + 2 Pan, 18.1 m
Radar Cross Section
36.964 m², Large (>1 m²)

Expand to show TLE details & history
Last TLE update: 1 day ago

TLE from 1 day ago
0 STARLINK-11574
1 63010U 25032F   25301.00206531  .00284572  00000-0  21306-2 0  9992
2 63010  42.9996 275.3030 0002304 232.8664 127.1994 15.71012950 41347
Epoch: 2025-10-28T00:02Z
TLE epoch observation values (Epoch: 2025-10-28T00:02:58.442Z)
Latitude
0.00001°
Longitude
-122.03631°
Altitude
356.71 km
Speed
7.696 km/s
True Right ascension
18h 21m 12s
True Declination
0° 00' 00"
Sunlit
Object was in daylight at epoch
Visualization orbit readout
Latitude
Unknown
Longitude
Unknown
Altitude
Unknown
Speed
Unknown
Apparent Right ascension
Unknown
Apparent Declination
Unknown
Sunlit
N/A
Visualization observer readout
Local Sidereal Time
23:54:07
Azimuth
Unknown
Elevation
Unknown
Doppler factor
Unknown
Orbital elements
Apogee altitude
359.535 km
Perigee altitude
356.431 km
Semi-major axis
6,736.12 km
Eccentricity
0.00023
Inclination
42.9996°
RAAN
275.303°
Arg. of periapsis
232.8664°
True anomaly
127.22043°
Mean anomaly
127.1994°
Eccentric anomaly
127.20991°
Mean motion
3.9258 °/min
Orbital period
91.7 mins
BSTAR
0.0021306
Loading maneuver chart data...
Computing Atmospheric mass density...
Loading historical data...
Loading historical data...
Loading historical data...
Loading historical data...
Loading historical data...
Loading historical data...
Loading historical data...

Documentation

Showing up to 5 results
|